[[{"header":{"parameterUnit":"m.s-1","parameterCategory":1,"la1":30.2991,"la2":30.254,"lo1":-89.0895,"lo2":-89.0444,"dy":0.0017,"dx":0.0017,"nx":28,"ny":28,"refTime":"2024-07-22T09:00:00:Z","depth":0,"parameterNumber":2,"parameterNumberName":"U-component_of_WINDS"},"data":[0,0,0,0,0,0,0,0,0,0,0,0,0,0,0,0,0,0,0,0,0,0,0,0,0,0,0,0,0,0,0,0,0,0,0,0,0,0,0,0,0,0,0,0,0,0,0,0,0,0,0,0,0,0,0,0,0,0,2.0225,2.0225,0,2.0253,2.0253,2.0253,2.0213,2.0212,2.021,2.0209,2.0238,2.024,2.0242,0,0,0,0,0,0,0,0,0,0,0,0,0,2.0135,2.0137,2.0225,2.0225,2.0225,2.0253,2.0253,2.0253,2.0213,2.0212,2.021,2.0208,2.0238,2.024,2.0243,0,0,0,0,0,0,0,0,0,0,0,0,0,2.017,2.0138,2.0224,2.0209,2.0207,2.0253,2.0253,2.0254,2.0214,2.0212,2.0209,2.0207,2.0237,2.024,2.0243,2.0305,0,0,2.0253,2.0254,0,0,0,0,0,0,0,0,2.0168,2.0173,2.0211,2.021,2.0209,2.0227,2.0232,2.0271,2.0214,2.0211,2.0209,2.0206,2.0236,2.0239,2.0249,2.0307,2.0308,2.0253,2.0255,2.0256,2.0257,0,0,0,0,0,0,0,2.0166,2.0172,2.0236,2.0211,2.021,2.02,2.0202,2.0239,2.0236,2.0211,2.0209,2.0212,2.0235,2.0246,2.025,2.0308,2.0253,2.0256,2.0258,2.0259,2.0415,2.0417,0,0,0,0,0,0,2.0165,2.017,2.0235,2.0237,2.0183,2.0203,2.0206,2.0223,2.0235,2.0235,2.0214,2.021,2.0242,2.0246,2.0251,2.0322,2.0256,2.0259,2.0261,2.0413,2.0415,2.0418,0,0,0,0,0,0,2.0163,2.0171,2.0234,2.0202,2.021,2.0207,2.0227,2.0225,2.0236,2.0237,2.0236,2.0226,2.0241,2.0246,2.0291,2.0322,2.0261,2.0263,2.041,2.0413,2.0416,2.0466,0,0,0,0,0,0,2.0161,2.0171,2.0195,2.0203,2.0211,2.0274,2.0229,2.0227,2.0241,2.0237,2.0248,2.0248,2.0239,2.0287,2.0294,2.0325,2.0266,2.0407,2.0411,2.0415,2.0461,2.047,2.0478,0,0,0,0,0,2.0158,2.0208,2.0196,2.0204,2.0241,2.0276,2.0281,2.0269,2.0244,2.0268,2.0268,2.0248,2.0318,2.0292,2.03,2.0332,2.0405,2.041,2.0415,2.0458,2.0469,2.0478,0,0,0,0,0,0,2.0204,2.0209,2.0196,2.0251,2.0263,2.0269,2.0298,2.0282,2.0302,2.0297,2.0283,2.0286,2.0333,2.0338,2.0308,2.0392,2.0357,2.0364,2.0387,2.0397,2.0406,2.0402,2.0268,0,0,0,0,0,2.0221,2.0249,2.0252,2.03,2.0306,2.0302,2.0316,2.0307,2.0319,2.0324,2.0328,2.0341,2.0365,2.0382,2.0405,2.0463,2.0463,2.0489,2.0497,2.0504,2.051,2.0538,2.0548,2.0434,2.0434,2.0434,0,0,2.0255,2.0261,2.028,2.0309,2.0317,2.0345,2.0306,2.0339,2.0359,2.0329,2.0371,2.0374,2.0387,2.0438,2.0461,2.0443,2.0542,2.0511,2.0516,2.0518,2.0544,2.0555,2.0564,2.0438,2.0437,2.0437,0,0,2.0332,2.034,2.038,2.0389,2.0402,2.0398,2.0407,2.0416,2.0416,2.0458,2.0435,2.046,2.0504,2.0513,2.0524,2.0602,2.0583,2.0611,2.0654,2.0681,2.069,2.0698,2.0723,2.0733,2.0617,2.0617,2.0617,0,2.0373,2.0414,2.0402,2.0435,2.0447,2.0421,2.046,2.047,2.049,2.0499,2.048,2.0532,2.054,2.0591,2.0609,2.062,2.0629,2.0608,2.069,2.0698,2.0705,2.0729,2.0739,2.062,2.0619,2.0619,2.0619,0,2.0463,2.0492,2.0522,2.0541,2.0557,2.0593,2.0586,2.0604,2.0593,2.0591,2.0632,2.064,2.0663,2.0675,2.0665,2.0724,2.0713,2.0692,2.0657,2.0719,2.0741,2.075,2.0624,2.0623,2.0622,2.0621,0,0,2.0568,2.0579,2.059,2.0597,2.0609,2.0631,2.0666,2.0687,2.0702,2.0717,2.0744,2.0781,2.0761,2.0773,2.0764,2.0789,2.0847,2.0764,2.0764,2.0777,2.0909,2.0923,2.0934,2.0835,2.0837,2.0838,2.0907,0,2.0642,2.0701,2.069,2.0747,2.0772,2.0747,2.0777,2.0787,2.0786,2.0808,2.0807,2.0832,2.0805,2.0812,2.0835,2.0835,2.0873,2.083,2.0859,2.086,2.0853,2.0946,2.0961,2.1026,2.0916,2.0918,2.0919,0,2.0736,2.0753,2.0812,2.0817,2.0828,2.0855,2.0872,2.0894,2.0904,2.0902,2.0915,2.0901,2.0934,2.0899,2.0944,2.0915,2.0926,2.0928,2.093,2.093,2.0891,2.0946,2.1046,2.1055,2.0933,2.0932,2.0931,0,2.0803,2.0841,2.088,2.0888,2.0896,2.0915,2.092,2.0928,2.0941,2.0957,2.0965,2.0986,2.0996,2.1012,2.1003,2.0979,2.1048,2.1014,2.1045,2.1045,2.1059,2.1058,2.116,2.1071,2.1071,2.1071,2.107,0,2.0885,2.0922,2.091,2.0934,2.0974,2.0961,2.1001,2.1002,2.101,2.1033,2.1014,2.1036,2.1024,2.1046,2.1039,2.1075,2.1081,2.1079,2.1076,2.1079,2.1079,2.1084,2.1079,2.1073,2.1073,2.1072,2.1072,0,2.0967,2.0961,2.1001,2.1006,2.1008,2.1036,2.104,2.1061,2.1059,2.1088,2.1095,2.1091,2.1114,2.1108,2.1134,2.113,2.1174,2.1168,2.117,2.1168,2.1199,2.1195,2.1305,2.1318,2.1224,2.1225,2.1226,0,2.1018,2.1045,2.1052,2.1065,2.1071,2.1094,2.1107,2.1096,2.111,2.1123,2.1143,2.1165,2.1181,2.122,2.1219,2.1239,2.123,2.1268,2.1233,2.1234,2.1228,2.1225,2.1226,2.1274,2.1275,2.1276,2.1277,0,2.1109,2.1104,2.1123,2.1141,2.1156,2.117,2.1182,2.1194,2.1184,2.12,2.1224,2.1237,2.1262,2.1284,2.1301,2.1305,2.1289,2.1288,2.1296,2.1297,2.1297,2.1295,2.1186,2.1285,2.1284,2.1283,2.1283,2.1283,2.1175,2.1196,2.1204,2.1225,2.1233,2.1244,2.1263,2.1263,2.1282,2.1302,2.1294,2.1321,2.1329,2.1351,2.1357,2.1377,2.1363,2.1375,2.1377,2.138,2.1382,2.1296,2.1381,2.138,2.138,2.138,2.138,0,2.1262,2.1265,2.1285,2.1301,2.1318,2.1301,2.1313,2.1327,2.1351,2.136,2.1376,2.1402,2.1422,2.1423,2.1442,2.1457,2.145,2.1462,2.146,2.146,2.1396,2.1385,2.1468,2.1468,2.1468,2.1468,2.1468,2.1468,2.1309,2.1344,2.134,2.1378,2.1381,2.1406,2.1414,2.1424,2.1431,2.146,2.1477,2.1477,2.1482,2.1501,2.1518,2.1518,2.1524,2.1539,2.1535,2.1474,2.1465,2.1457,2.1447,2.1541,2.1541,2.1598,2.1599,2.1599]},{"header":{"parameterUnit":"m.s-1","parameterCategory":1,"la1":30.2991,"la2":30.254,"lo1":-89.0895,"lo2":-89.0444,"dy":0.0017,"dx":0.0017,"nx":28,"ny":28,"refTime":"2024-07-22T09:00:00:Z","depth":0,"parameterNumber":3,"parameterNumberName":"V-component_of_WINDS"},"data":[0,0,0,0,0,0,0,0,0,0,0,0,0,0,0,0,0,0,0,0,0,0,0,0,0,0,0,0,0,0,0,0,0,0,0,0,0,0,0,0,0,0,0,0,0,0,0,0,0,0,0,0,0,0,0,0,0,0,1.0574,1.0576,0,1.0772,1.0775,1.0777,1.083,1.0829,1.0828,1.0827,1.1031,1.1038,1.1044,0,0,0,0,0,0,0,0,0,0,0,0,0,1.0242,1.0247,1.0574,1.0576,1.0579,1.0772,1.0775,1.0777,1.0831,1.0829,1.0828,1.0826,1.1029,1.1037,1.1045,0,0,0,0,0,0,0,0,0,0,0,0,0,1.0407,1.0249,1.0573,1.0628,1.0635,1.0771,1.0775,1.0778,1.0831,1.0829,1.0827,1.0826,1.1027,1.1036,1.1046,1.1142,0,0,1.1076,1.108,0,0,0,0,0,0,0,0,1.0398,1.042,1.0618,1.0625,1.0633,1.0775,1.0733,1.09,1.0831,1.0757,1.0827,1.0825,1.0947,1.0964,1.1005,1.1151,1.116,1.1077,1.1083,1.1087,1.109,0,0,0,0,0,0,0,1.0386,1.0411,1.0652,1.0621,1.063,1.0644,1.0665,1.0765,1.086,1.0763,1.0767,1.079,1.0951,1.0995,1.101,1.1163,1.1076,1.1085,1.1091,1.1095,1.1397,1.1399,0,0,0,0,0,0,1.0365,1.0401,1.0646,1.0658,1.0509,1.0651,1.0675,1.0731,1.0859,1.0876,1.0791,1.0792,1.0979,1.0998,1.1017,1.1137,1.1087,1.1096,1.1102,1.1395,1.1397,1.1399,0,0,0,0,0,0,1.0358,1.0387,1.0638,1.0531,1.0564,1.0658,1.0721,1.0736,1.078,1.088,1.0897,1.0819,1.0979,1.1004,1.111,1.1145,1.11,1.1109,1.1392,1.1395,1.1398,1.1378,0,0,0,0,0,0,1.0348,1.0384,1.0421,1.0532,1.057,1.0727,1.0723,1.0741,1.0796,1.0799,1.091,1.0927,1.0979,1.1095,1.112,1.1158,1.1117,1.1389,1.1393,1.1397,1.1376,1.138,1.1384,0,0,0,0,0,1.0336,1.0408,1.0423,1.0452,1.0618,1.0729,1.0751,1.0809,1.0799,1.0837,1.0901,1.0924,1.1137,1.1105,1.1134,1.1175,1.1387,1.1392,1.1397,1.1374,1.1379,1.1384,0,0,0,0,0,0,1.03,1.0423,1.0441,1.0551,1.0629,1.0738,1.0788,1.0813,1.0896,1.0895,1.0964,1.0988,1.109,1.1143,1.1106,1.1274,1.1263,1.1273,1.1236,1.1241,1.1245,1.123,1.1125,0,0,0,0,0,1.0304,1.0384,1.0488,1.0574,1.0613,1.0693,1.0744,1.0782,1.0866,1.0899,1.0971,1.1052,1.1137,1.1192,1.1276,1.1384,1.1409,1.1426,1.143,1.1433,1.1441,1.1501,1.151,1.1415,1.1415,1.1415,0,0,1.0315,1.0392,1.0439,1.0569,1.0634,1.0715,1.0721,1.0806,1.0867,1.0912,1.1017,1.1072,1.1167,1.1274,1.1325,1.1322,1.1473,1.1439,1.144,1.1448,1.1507,1.1516,1.1524,1.1418,1.1418,1.1417,0,0,1.0376,1.0442,1.0522,1.0586,1.0684,1.0737,1.0756,1.0861,1.09,1.1005,1.1041,1.1114,1.126,1.1325,1.1378,1.1462,1.1485,1.1487,1.1507,1.1565,1.1573,1.158,1.1609,1.1619,1.1495,1.1495,1.1495,0,1.0377,1.05,1.0559,1.0643,1.0699,1.0743,1.0823,1.0883,1.1004,1.1041,1.1036,1.1219,1.1286,1.1409,1.1429,1.147,1.1493,1.1475,1.1567,1.1574,1.1582,1.1611,1.1622,1.1495,1.1495,1.1495,1.1495,0,1.0496,1.0581,1.0633,1.0747,1.0809,1.0891,1.0962,1.1018,1.105,1.1103,1.121,1.1292,1.1392,1.1424,1.1457,1.1551,1.1546,1.1553,1.1543,1.1589,1.1618,1.1629,1.1494,1.1494,1.1494,1.1495,0,0,1.0541,1.0686,1.0704,1.0756,1.0866,1.0933,1.1016,1.1114,1.116,1.1242,1.1313,1.1434,1.1441,1.15,1.154,1.1591,1.1651,1.1591,1.1595,1.1599,1.176,1.1754,1.1766,1.1667,1.1669,1.1671,1.1752,0,1.0616,1.0765,1.0821,1.0944,1.1022,1.1064,1.1136,1.1212,1.1263,1.1338,1.1395,1.148,1.1482,1.1518,1.157,1.1633,1.1684,1.1628,1.1734,1.1737,1.1709,1.1781,1.1776,1.1848,1.1763,1.1765,1.1767,0,1.0723,1.0804,1.0935,1.1034,1.1069,1.1133,1.1227,1.1297,1.1384,1.1418,1.1483,1.152,1.1608,1.1591,1.1714,1.1674,1.1721,1.1758,1.1762,1.1775,1.1755,1.1796,1.1873,1.1883,1.1785,1.1783,1.1782,0,1.0742,1.0884,1.0981,1.1024,1.1143,1.1186,1.1238,1.1322,1.1377,1.1459,1.1496,1.1587,1.1637,1.1706,1.1766,1.1749,1.1883,1.1872,1.1914,1.1912,1.1941,1.1938,1.2027,1.197,1.197,1.197,1.197,0,1.082,1.0898,1.0991,1.105,1.1138,1.1201,1.1287,1.1341,1.1415,1.1486,1.1528,1.1593,1.1668,1.1743,1.179,1.1884,1.1907,1.1937,1.1948,1.1933,1.1929,1.1965,1.1961,1.1973,1.1972,1.1972,1.1971,0,1.0857,1.0922,1.1029,1.1132,1.116,1.122,1.1309,1.1368,1.1421,1.1509,1.1534,1.1617,1.1707,1.1774,1.1891,1.1922,1.2023,1.2035,1.1993,1.1999,1.2037,1.2033,1.2152,1.2171,1.2101,1.2102,1.2102,0,1.0902,1.0963,1.1072,1.1121,1.1173,1.1252,1.1308,1.1372,1.1428,1.153,1.1577,1.1669,1.1747,1.1889,1.196,1.205,1.2064,1.21,1.2078,1.206,1.2065,1.206,1.2067,1.2103,1.2103,1.2104,1.2104,0,1.0975,1.1004,1.1083,1.1173,1.1238,1.1312,1.1386,1.1425,1.1502,1.1563,1.1655,1.1715,1.1834,1.1925,1.2021,1.2075,1.2102,1.211,1.2124,1.211,1.2083,1.2098,1.2002,1.2107,1.2107,1.2107,1.2106,1.2106,1.1018,1.1074,1.1159,1.1245,1.1307,1.1375,1.1436,1.1495,1.1573,1.1674,1.1707,1.1802,1.1886,1.2018,1.2072,1.2147,1.2147,1.2168,1.2173,1.2177,1.2176,1.207,1.2165,1.2165,1.2165,1.2165,1.2165,0,1.1094,1.115,1.1228,1.1331,1.1398,1.1417,1.15,1.1555,1.1638,1.1714,1.1789,1.1894,1.1983,1.206,1.2152,1.2198,1.2213,1.222,1.2217,1.2229,1.2172,1.215,1.2206,1.2206,1.2206,1.2206,1.2206,1.2206,1.1141,1.1236,1.1274,1.14,1.1456,1.1549,1.1595,1.1658,1.1719,1.1834,1.1908,1.1957,1.2034,1.2131,1.2213,1.2234,1.2266,1.227,1.2293,1.2238,1.2233,1.2229,1.2208,1.2276,1.2276,1.2345,1.2345,1.2346]}]]